| time (UTC) | temp F | wind direction | speed MPH | gust MPH | rain 1hr in | rain 24hr in | rain mn in | humidity % | barometer mb |
| 20260903180513 | 59 | 116 | 1.0 | 8.0 | 0.00 | 0.00 | 0.00 | 76 | 1021.9 |
| 20260903180012 | 59 | 113 | 1.0 | 8.0 | 0.00 | 0.00 | 0.00 | 76 | 1022.0 |
| 20260903175516 | 59 | 93 | 2.0 | 8.0 | 0.00 | 0.00 | 0.00 | 76 | 1021.9 |
| 20260903175012 | 59 | 85 | 3.0 | 9.0 | 0.00 | 0.00 | 0.00 | 75 | 1022.0 |
| 20260903174011 | 59 | 78 | 0.0 | 9.0 | 0.00 | 0.00 | 0.00 | 76 | 1022.1 |
| 20260903173510 | 59 | 51 | 2.0 | 9.0 | 0.00 | 0.00 | 0.00 | 75 | 1022.2 |
| 20260903173017 | 59 | 90 | 2.0 | 7.0 | 0.00 | 0.00 | 0.00 | 75 | 1022.1 |
| 20260903172513 | 59 | 85 | 3.0 | 7.0 | 0.00 | 0.00 | 0.00 | 75 | 1022.3 |
| 20260903172009 | 59 | 54 | 1.0 | 7.0 | 0.00 | 0.00 | 0.00 | 76 | 1022.4 |
| 20260903171508 | 59 | 132 | 2.0 | 9.0 | 0.00 | 0.00 | 0.00 | 76 | 1022.4 |
| 20260903171006 | 59 | 124 | 2.0 | 9.0 | 0.00 | 0.00 | 0.00 | 76 | 1022.4 |
| 20260903170506 | 59 | 97 | 2.0 | 8.0 | 0.00 | 0.00 | 0.00 | 77 | 1022.5 |
| 20260903170010 | 59 | 74 | 3.0 | 8.0 | 0.00 | 0.00 | 0.00 | 76 | 1022.5 |
| 20260903165505 | 59 | 91 | 4.0 | 8.0 | 0.00 | 0.00 | 0.00 | 77 | 1022.5 |
| 20260903165003 | 59 | 102 | 2.0 | 8.0 | 0.00 | 0.00 | 0.00 | 78 | 1022.5 |
| 20260903164003 | 59 | 56 | 5.0 | 8.0 | 0.00 | 0.00 | 0.00 | 78 | 1022.6 |
| 20260903163504 | 58 | 87 | 3.0 | 8.0 | 0.00 | 0.00 | 0.00 | 77 | 1022.6 |
| 20260903163002 | 58 | 51 | 4.0 | 9.0 | 0.00 | 0.00 | 0.00 | 78 | 1022.7 |
| 20260903162502 | 58 | 65 | 3.0 | 9.0 | 0.00 | 0.00 | 0.00 | 79 | 1022.7 |
| 20260903162001 | 58 | 83 | 4.0 | 8.0 | 0.00 | 0.00 | 0.00 | 78 | 1022.7 |
| 20260903161500 | 58 | 71 | 4.0 | 9.0 | 0.00 | 0.00 | 0.00 | 78 | 1022.7 |
| 20260903161101 | 58 | 85 | 5.0 | 9.0 | 0.00 | 0.00 | 0.00 | 79 | 1022.7 |
| 20260903160600 | 58 | 68 | 5.0 | 9.0 | 0.00 | 0.00 | 0.00 | 78 | 1022.6 |
| 20260903155601 | 58 | 81 | 5.0 | 9.0 | 0.00 | 0.00 | 0.00 | 78 | 1022.6 |
| 20260903155100 | 57 | 62 | 4.0 | 8.0 | 0.00 | 0.00 | 0.00 | 79 | 1022.6 |
| 20260903154002 | 57 | 80 | 4.0 | 8.0 | 0.00 | 0.00 | 0.00 | 78 | 1022.7 |
| 20260903153502 | 57 | 64 | 5.0 | 8.0 | 0.00 | 0.00 | 0.00 | 79 | 1022.7 |
| 20260903153002 | 57 | 74 | 4.0 | 8.0 | 0.00 | 0.00 | 0.00 | 79 | 1022.7 |
| 20260903152502 | 57 | 78 | 5.0 | 9.0 | 0.00 | 0.00 | 0.00 | 78 | 1022.7 |
| 20260903152002 | 57 | 87 | 5.0 | 9.0 | 0.00 | 0.00 | 0.00 | 79 | 1022.8 |
| 20260903151501 | 57 | 61 | 4.0 | 8.0 | 0.00 | 0.00 | 0.00 | 79 | 1022.9 |
| 20260903151000 | 57 | 58 | 4.0 | 8.0 | 0.00 | 0.00 | 0.00 | 79 | 1023.0 |
| 20260903150602 | 57 | 78 | 4.0 | 8.0 | 0.00 | 0.00 | 0.00 | 78 | 1023.0 |
| 20260903150101 | 57 | 85 | 4.0 | 7.0 | 0.00 | 0.00 | 0.00 | 78 | 1023.0 |
| 20260903150002 | 57 | 84 | 4.0 | 7.0 | 0.00 | 0.00 | 0.00 | 79 | 1023.0 |
| 20260903145600 | 57 | 58 | 4.0 | 7.0 | 0.00 | 0.00 | 0.00 | 78 | 1023.1 |
| 20260903145103 | 57 | 79 | 4.0 | 7.0 | 0.00 | 0.00 | 0.00 | 78 | 1023.1 |
| 20260903144059 | 57 | 72 | 3.0 | 6.0 | 0.00 | 0.00 | 0.00 | 77 | 1023.2 |
| 20260903143559 | 57 | 50 | 3.0 | 6.0 | 0.00 | 0.00 | 0.00 | 79 | 1023.1 |
| 20260903143109 | 57 | 73 | 3.0 | 7.0 | 0.00 | 0.00 | 0.00 | 79 | 1023.1 |
| 20260903142558 | 57 | 64 | 3.0 | 7.0 | 0.00 | 0.00 | 0.00 | 79 | 1023.2 |
| 20260903142101 | 57 | 69 | 3.0 | 8.0 | 0.00 | 0.00 | 0.00 | 79 | 1023.3 |
| 20260903141558 | 57 | 76 | 3.0 | 8.0 | 0.00 | 0.00 | 0.00 | 79 | 1023.3 |
| 20260903141057 | 57 | 78 | 3.0 | 7.0 | 0.00 | 0.00 | 0.00 | 79 | 1023.3 |
| 20260903140557 | 57 | 85 | 2.0 | 7.0 | 0.00 | 0.00 | 0.00 | 79 | 1023.3 |
| 20260903140058 | 57 | 81 | 4.0 | 7.0 | 0.00 | 0.00 | 0.00 | 79 | 1023.4 |
| 20260903135557 | 57 | 66 | 4.0 | 7.0 | 0.00 | 0.00 | 0.00 | 79 | 1023.4 |
| 20260903135056 | 57 | 69 | 5.0 | 7.0 | 0.00 | 0.00 | 0.00 | 79 | 1023.5 |
| 20260903134055 | 57 | 81 | 4.0 | 8.0 | 0.00 | 0.00 | 0.00 | 79 | 1023.4 |
| 20260903133555 | 57 | 73 | 4.0 | 8.0 | 0.00 | 0.00 | 0.00 | 79 | 1023.5 |
| 20260903133108 | 57 | 71 | 3.0 | 7.0 | 0.00 | 0.00 | 0.00 | 79 | 1023.5 |
| 20260903132558 | 58 | 78 | 4.0 | 7.0 | 0.00 | 0.00 | 0.00 | 78 | 1023.4 |
| 20260903132056 | 58 | 56 | 3.0 | 6.0 | 0.00 | 0.00 | 0.00 | 79 | 1023.5 |
| 20260903131607 | 58 | 83 | 4.0 | 6.0 | 0.00 | 0.00 | 0.00 | 78 | 1023.5 |
| 20260903131053 | 58 | 78 | 3.0 | 6.0 | 0.00 | 0.00 | 0.00 | 78 | 1023.5 |
| 20260903130553 | 57 | 65 | 2.0 | 7.0 | 0.00 | 0.00 | 0.00 | 81 | 1023.4 |
| 20260903130105 | 57 | 81 | 2.0 | 7.0 | 0.00 | 0.00 | 0.00 | 79 | 1023.4 |
| 20260903125552 | 57 | 51 | 3.0 | 7.0 | 0.00 | 0.00 | 0.00 | 78 | 1023.4 |
| 20260903125052 | 58 | 68 | 4.0 | 7.0 | 0.00 | 0.00 | 0.00 | 79 | 1023.3 |
| 20260903124055 | 57 | 71 | 3.0 | 7.0 | 0.00 | 0.00 | 0.00 | 80 | 1023.4 |
| 20260903123552 | 57 | 62 | 3.0 | 7.0 | 0.00 | 0.00 | 0.00 | 80 | 1023.3 |
| 20260903123054 | 57 | 75 | 3.0 | 6.0 | 0.00 | 0.00 | 0.00 | 80 | 1023.3 |
| 20260903122552 | 57 | 44 | 3.0 | 6.0 | 0.00 | 0.00 | 0.00 | 80 | 1023.4 |
| 20260903122052 | 57 | 76 | 2.0 | 5.0 | 0.00 | 0.00 | 0.00 | 80 | 1023.4 |
| 20260903121551 | 57 | 79 | 1.0 | 6.0 | 0.00 | 0.00 | 0.00 | 81 | 1023.5 |
| 20260903121050 | 57 | 49 | 2.0 | 6.0 | 0.00 | 0.00 | 0.00 | 81 | 1023.4 |
| 20260903120550 | 57 | 83 | 1.0 | 6.0 | 0.00 | 0.00 | 0.00 | 81 | 1023.4 |
| 20260903120049 | 57 | 51 | 2.0 | 6.0 | 0.00 | 0.00 | 0.00 | 81 | 1023.4 |
| 20260903115549 | 57 | 48 | 3.0 | 5.0 | 0.00 | 0.00 | 0.00 | 81 | 1023.4 |
| 20260903115049 | 57 | 69 | 3.0 | 5.0 | 0.00 | 0.00 | 0.00 | 81 | 1023.4 |
| 20260903114047 | 56 | 192 | 0.0 | 2.0 | 0.00 | 0.00 | 0.00 | 83 | 1023.4 |
| 20260903113546 | 55 | 241 | 0.0 | 2.0 | 0.00 | 0.00 | 0.00 | 84 | 1023.4 |
| 20260903113047 | 55 | 241 | 1.0 | 4.0 | 0.00 | 0.00 | 0.00 | 85 | 1023.3 |
| 20260903112547 | 54 | 188 | 0.0 | 3.0 | 0.00 | 0.00 | 0.00 | 85 | 1023.3 |
| 20260903112043 | 54 | 257 | 0.0 | 2.0 | 0.00 | 0.00 | 0.00 | 86 | 1023.3 |
| 20260903111543 | 53 | 274 | 0.0 | 5.0 | 0.00 | 0.00 | 0.00 | 87 | 1023.2 |
| 20260903111043 | 53 | 274 | 0.0 | 5.0 | 0.00 | 0.00 | 0.00 | 88 | 1023.3 |
| 20260903110539 | 52 | 257 | 0.0 | 4.0 | 0.00 | 0.00 | 0.00 | 89 | 1023.3 |
| 20260903110037 | 52 | 247 | 1.0 | 4.0 | 0.00 | 0.00 | 0.00 | 90 | 1023.3 |
| 20260903105537 | 51 | 259 | 0.0 | 4.0 | 0.00 | 0.00 | 0.00 | 90 | 1023.3 |
| 20260903105035 | 51 | 251 | 1.0 | 5.0 | 0.00 | 0.00 | 0.00 | 91 | 1023.3 |
| 20260903104035 | 50 | 269 | 0.0 | 2.0 | 0.00 | 0.00 | 0.00 | 92 | 1023.3 |
| 20260903103533 | 49 | 259 | 0.0 | 4.0 | 0.00 | 0.00 | 0.00 | 93 | 1023.3 |
| 20260903103032 | 48 | 263 | 0.0 | 4.0 | 0.00 | 0.00 | 0.00 | 93 | 1023.3 |
| 20260903102534 | 48 | 261 | 0.0 | 4.0 | 0.00 | 0.00 | 0.00 | 93 | 1023.4 |
| 20260903102031 | 47 | 259 | 0.0 | 4.0 | 0.00 | 0.00 | 0.00 | 94 | 1023.3 |
| 20260903101527 | 47 | 255 | 1.0 | 5.0 | 0.00 | 0.00 | 0.00 | 94 | 1023.3 |
| 20260903101026 | 46 | 255 | 2.0 | 5.0 | 0.00 | 0.00 | 0.00 | 94 | 1023.4 |
| 20260903100525 | 46 | 264 | 1.0 | 5.0 | 0.00 | 0.00 | 0.00 | 94 | 1023.3 |
| 20260903100025 | 45 | 261 | 3.0 | 5.0 | 0.00 | 0.00 | 0.00 | 94 | 1023.4 |
| 20260903095522 | 45 | 258 | 2.0 | 5.0 | 0.00 | 0.00 | 0.00 | 95 | 1023.4 |
| 20260903095023 | 44 | 259 | 3.0 | 5.0 | 0.00 | 0.00 | 0.00 | 94 | 1023.4 |
| 20260903094020 | 43 | 257 | 2.0 | 5.0 | 0.00 | 0.00 | 0.00 | 94 | 1023.4 |
| 20260903093520 | 42 | 257 | 2.0 | 5.0 | 0.00 | 0.00 | 0.00 | 94 | 1023.4 |
| 20260903093023 | 42 | 259 | 3.0 | 5.0 | 0.00 | 0.00 | 0.00 | 94 | 1023.3 |
| 20260903092521 | 42 | 255 | 2.0 | 5.0 | 0.00 | 0.00 | 0.00 | 94 | 1023.2 |
| 20260903092019 | 42 | 256 | 2.0 | 5.0 | 0.00 | 0.00 | 0.00 | 94 | 1023.3 |
| 20260903091520 | 42 | 260 | 3.0 | 4.0 | 0.00 | 0.00 | 0.00 | 94 | 1023.2 |
| 20260903091019 | 42 | 269 | 1.0 | 5.0 | 0.00 | 0.00 | 0.00 | 94 | 1023.2 |
| 20260903090518 | 42 | 258 | 2.0 | 5.0 | 0.00 | 0.00 | 0.00 | 94 | 1023.1 |
| 20260903090018 | 42 | 257 | 3.0 | 5.0 | 0.00 | 0.00 | 0.00 | 94 | 1023.1 |
| 20260903085516 | 42 | 261 | 3.0 | 5.0 | 0.00 | 0.00 | 0.00 | 94 | 1023.1 |
| 20260903085016 | 42 | 252 | 3.0 | 5.0 | 0.00 | 0.00 | 0.00 | 94 | 1023.0 |
| 20260903084016 | 40 | 254 | 2.0 | 4.0 | 0.00 | 0.00 | 0.00 | 94 | 1022.9 |
| 20260903083516 | 40 | 263 | 2.0 | 4.0 | 0.00 | 0.00 | 0.00 | 94 | 1022.9 |
| 20260903083015 | 40 | 257 | 2.0 | 4.0 | 0.00 | 0.00 | 0.00 | 93 | 1022.9 |
| 20260903082515 | 40 | 257 | 1.0 | 3.0 | 0.00 | 0.00 | 0.00 | 93 | 1022.9 |
| 20260903082015 | 41 | 260 | 2.0 | 4.0 | 0.00 | 0.00 | 0.00 | 94 | 1022.9 |
| 20260903081516 | 41 | 259 | 2.0 | 4.0 | 0.00 | 0.00 | 0.00 | 94 | 1022.9 |
| 20260903081015 | 40 | 268 | 2.0 | 4.0 | 0.00 | 0.00 | 0.00 | 94 | 1022.9 |
| 20260903080514 | 40 | 257 | 2.0 | 4.0 | 0.00 | 0.00 | 0.00 | 93 | 1023.0 |
| 20260903080014 | 40 | 254 | 1.0 | 4.0 | 0.00 | 0.00 | 0.00 | 93 | 1023.0 |
| 20260903075515 | 41 | 254 | 1.0 | 2.0 | 0.00 | 0.00 | 0.00 | 93 | 1022.9 |
| 20260903075014 | 41 | 254 | 1.0 | 3.0 | 0.00 | 0.00 | 0.00 | 93 | 1022.9 |
| 20260903074015 | 41 | 261 | 2.0 | 3.0 | 0.00 | 0.00 | 0.00 | 93 | 1023.0 |
| 20260903073514 | 40 | 258 | 2.0 | 3.0 | 0.00 | 0.00 | 0.00 | 93 | 1022.9 |
| 20260903073015 | 40 | 256 | 2.0 | 4.0 | 0.00 | 0.00 | 0.00 | 92 | 1022.8 |
| 20260903072514 | 41 | 256 | 1.0 | 4.0 | 0.00 | 0.00 | 0.00 | 93 | 1022.7 |
| 20260903072014 | 42 | 234 | 1.0 | 4.0 | 0.00 | 0.00 | 0.00 | 93 | 1022.7 |
| 20260903071514 | 42 | 253 | 1.0 | 2.0 | 0.00 | 0.00 | 0.00 | 93 | 1022.7 |
| 20260903071014 | 42 | 258 | 1.0 | 3.0 | 0.00 | 0.00 | 0.00 | 93 | 1022.7 |
| 20260903070514 | 43 | 258 | 1.0 | 3.0 | 0.00 | 0.00 | 0.00 | 93 | 1022.7 |
| 20260903070013 | 43 | 258 | 1.0 | 3.0 | 0.00 | 0.00 | 0.00 | 93 | 1022.7 |
| 20260903065514 | 43 | 264 | 1.0 | 5.0 | 0.00 | 0.00 | 0.00 | 93 | 1022.6 |
| 20260903065013 | 43 | 258 | 3.0 | 5.0 | 0.00 | 0.00 | 0.00 | 93 | 1022.7 |
| 20260903064016 | 43 | 264 | 1.0 | 3.0 | 0.00 | 0.00 | 0.00 | 93 | 1022.6 |
| 20260903063513 | 43 | 264 | 1.0 | 3.0 | 0.00 | 0.00 | 0.00 | 93 | 1022.6 |
| 20260903063013 | 43 | 263 | 1.0 | 5.0 | 0.00 | 0.00 | 0.00 | 93 | 1022.6 |
| 20260903062512 | 43 | 258 | 3.0 | 5.0 | 0.00 | 0.00 | 0.00 | 93 | 1022.6 |
| 20260903062011 | 43 | 253 | 2.0 | 3.0 | 0.00 | 0.00 | 0.00 | 93 | 1022.6 |
| 20260903061520 | 43 | 253 | 1.0 | 3.0 | 0.00 | 0.00 | 0.00 | 93 | 1022.7 |
| 20260903061011 | 43 | 253 | 2.0 | 3.0 | 0.00 | 0.00 | 0.00 | 93 | 1022.7 |
| 20260903060511 | 43 | 256 | 2.0 | 4.0 | 0.00 | 0.00 | 0.00 | 93 | 1022.7 |
| 20260903060016 | 43 | 260 | 2.0 | 3.0 | 0.00 | 0.00 | 0.00 | 93 | 1022.7 |
| 20260903055511 | 43 | 261 | 1.0 | 3.0 | 0.00 | 0.00 | 0.00 | 93 | 1022.6 |
| 20260903055011 | 43 | 271 | 2.0 | 5.0 | 0.00 | 0.00 | 0.00 | 93 | 1022.6 |
| 20260903054016 | 43 | 274 | 2.0 | 6.0 | 0.00 | 0.00 | 0.00 | 94 | 1022.6 |
| 20260903053515 | 43 | 260 | 3.0 | 5.0 | 0.00 | 0.00 | 0.00 | 93 | 1022.5 |
| 20260903053011 | 42 | 266 | 2.0 | 4.0 | 0.00 | 0.00 | 0.00 | 94 | 1022.5 |
| 20260903052512 | 42 | 264 | 2.0 | 3.0 | 0.00 | 0.00 | 0.00 | 93 | 1022.5 |
| 20260903052011 | 42 | 261 | 2.0 | 4.0 | 0.00 | 0.00 | 0.00 | 94 | 1022.5 |
| 20260903051512 | 42 | 258 | 3.0 | 5.0 | 0.00 | 0.00 | 0.00 | 94 | 1022.5 |
| 20260903051013 | 42 | 258 | 3.0 | 5.0 | 0.00 | 0.00 | 0.00 | 94 | 1022.5 |
| 20260903050510 | 42 | 259 | 2.0 | 5.0 | 0.00 | 0.00 | 0.00 | 94 | 1022.6 |
| 20260903050010 | 42 | 263 | 2.0 | 5.0 | 0.00 | 0.00 | 0.00 | 94 | 1022.6 |
| 20260903045510 | 41 | 259 | 2.0 | 4.0 | 0.00 | 0.00 | 0.00 | 94 | 1022.6 |
| 20260903045009 | 40 | 259 | 2.0 | 4.0 | 0.00 | 0.00 | 0.00 | 93 | 1022.6 |
| 20260903044009 | 40 | 260 | 2.0 | 3.0 | 0.00 | 0.00 | 0.00 | 93 | 1022.6 |
| 20260903043511 | 40 | 260 | 1.0 | 2.0 | 0.00 | 0.00 | 0.00 | 93 | 1022.6 |
| 20260903043009 | 40 | 260 | 1.0 | 2.0 | 0.00 | 0.00 | 0.00 | 92 | 1022.6 |
| 20260903042510 | 41 | 260 | 1.0 | 2.0 | 0.00 | 0.00 | 0.00 | 92 | 1022.7 |
| 20260903042009 | 42 | 260 | 1.0 | 4.0 | 0.00 | 0.00 | 0.00 | 93 | 1022.7 |
| 20260903041508 | 42 | 260 | 1.0 | 4.0 | 0.00 | 0.00 | 0.00 | 93 | 1022.8 |
| 20260903041008 | 43 | 260 | 1.0 | 4.0 | 0.00 | 0.00 | 0.00 | 93 | 1022.8 |
| 20260903040507 | 43 | 260 | 2.0 | 3.0 | 0.00 | 0.00 | 0.00 | 94 | 1022.8 |
| 20260903040009 | 43 | 260 | 2.0 | 3.0 | 0.00 | 0.00 | 0.00 | 94 | 1022.8 |
| 20260903035506 | 43 | 260 | 2.0 | 3.0 | 0.00 | 0.00 | 0.00 | 94 | 1022.8 |
| 20260903035005 | 42 | 260 | 1.0 | 5.0 | 0.00 | 0.00 | 0.00 | 94 | 1022.9 |
| 20260903034005 | 41 | 262 | 2.0 | 5.0 | 0.00 | 0.00 | 0.00 | 93 | 1022.9 |
| 20260903033504 | 41 | 259 | 2.0 | 4.0 | 0.00 | 0.00 | 0.00 | 93 | 1022.8 |
| 20260903033003 | 41 | 259 | 2.0 | 4.0 | 0.00 | 0.00 | 0.00 | 93 | 1022.7 |
| 20260903032502 | 41 | 259 | 2.0 | 4.0 | 0.00 | 0.00 | 0.00 | 93 | 1022.8 |
| 20260903032003 | 40 | 259 | 2.0 | 4.0 | 0.00 | 0.00 | 0.00 | 93 | 1022.8 |
| 20260903031501 | 40 | 259 | 2.0 | 4.0 | 0.00 | 0.00 | 0.00 | 93 | 1022.9 |
| 20260903031003 | 40 | 259 | 2.0 | 3.0 | 0.00 | 0.00 | 0.00 | 93 | 1022.9 |
| 20260903030502 | 41 | 259 | 2.0 | 3.0 | 0.00 | 0.00 | 0.00 | 93 | 1022.8 |
| 20260903030101 | 40 | 259 | 1.0 | 3.0 | 0.00 | 0.00 | 0.00 | 93 | 1022.8 |
| 20260903025559 | 40 | 258 | 2.0 | 4.0 | 0.00 | 0.00 | 0.00 | 93 | 1022.7 |
| 20260903025059 | 39 | 244 | 2.0 | 3.0 | 0.00 | 0.00 | 0.00 | 93 | 1022.8 |
| 20260903024700 | 39 | 244 | 1.0 | 2.0 | 0.00 | 0.00 | 0.00 | 92 | 1022.8 |
| 20260903024059 | 39 | 244 | 1.0 | 2.0 | 0.00 | 0.00 | 0.00 | 92 | 1022.8 |
| 20260903023558 | 39 | 244 | 1.0 | 2.0 | 0.00 | 0.00 | 0.00 | 92 | 1022.8 |
| 20260903023120 | 39 | 244 | 1.0 | 3.0 | 0.00 | 0.00 | 0.00 | 92 | 1022.8 |
| 20260903022557 | 39 | 244 | 2.0 | 3.0 | 0.00 | 0.00 | 0.00 | 92 | 1022.9 |
| 20260903022058 | 40 | 244 | 2.0 | 4.0 | 0.00 | 0.00 | 0.00 | 92 | 1022.9 |
| 20260903021555 | 40 | 244 | 2.0 | 4.0 | 0.00 | 0.00 | 0.00 | 92 | 1022.9 |
| 20260903021055 | 40 | 244 | 2.0 | 3.0 | 0.00 | 0.00 | 0.00 | 92 | 1022.9 |
| 20260903020555 | 40 | 247 | 1.0 | 3.0 | 0.00 | 0.00 | 0.00 | 92 | 1022.9 |
| 20260903020057 | 41 | 249 | 1.0 | 3.0 | 0.00 | 0.00 | 0.00 | 92 | 1023.0 |
| 20260903015555 | 41 | 251 | 1.0 | 3.0 | 0.00 | 0.00 | 0.00 | 92 | 1022.9 |
| 20260903015054 | 41 | 251 | 1.0 | 3.0 | 0.00 | 0.00 | 0.00 | 92 | 1023.0 |
| 20260903014653 | 40 | 251 | 2.0 | 3.0 | 0.00 | 0.00 | 0.00 | 92 | 1022.9 |
| 20260903014053 | 40 | 250 | 2.0 | 3.0 | 0.00 | 0.00 | 0.00 | 92 | 1022.9 |
| 20260903013553 | 40 | 248 | 1.0 | 3.0 | 0.00 | 0.00 | 0.00 | 91 | 1023.0 |
| 20260903013053 | 40 | 255 | 3.0 | 5.0 | 0.00 | 0.00 | 0.00 | 91 | 1023.0 |
| 20260903012553 | 41 | 253 | 2.0 | 5.0 | 0.00 | 0.00 | 0.00 | 91 | 1023.0 |
| 20260903012050 | 41 | 241 | 3.0 | 5.0 | 0.00 | 0.00 | 0.00 | 91 | 1023.1 |
| 20260903011552 | 41 | 242 | 2.0 | 4.0 | 0.00 | 0.00 | 0.00 | 91 | 1023.0 |
| 20260903011051 | 41 | 244 | 2.0 | 5.0 | 0.00 | 0.00 | 0.00 | 91 | 1023.0 |
| 20260903010549 | 41 | 245 | 3.0 | 5.0 | 0.00 | 0.00 | 0.00 | 91 | 1023.0 |
| 20260903010047 | 42 | 247 | 2.0 | 5.0 | 0.00 | 0.00 | 0.00 | 91 | 1023.0 |
| 20260903005550 | 42 | 247 | 2.0 | 5.0 | 0.00 | 0.00 | 0.00 | 91 | 1023.0 |
| 20260903005046 | 42 | 256 | 2.0 | 4.0 | 0.00 | 0.00 | 0.00 | 91 | 1023.0 |
| 20260903004645 | 42 | 251 | 2.0 | 3.0 | 0.00 | 0.00 | 0.00 | 90 | 1023.1 |
| 20260903004145 | 42 | 253 | 3.0 | 4.0 | 0.00 | 0.00 | 0.00 | 90 | 1023.1 |
| 20260903003548 | 42 | 244 | 2.0 | 4.0 | 0.00 | 0.00 | 0.00 | 90 | 1023.1 |
| 20260903003042 | 42 | 276 | 2.0 | 4.0 | 0.00 | 0.00 | 0.00 | 90 | 1023.0 |
| 20260903002542 | 43 | 276 | 1.0 | 3.0 | 0.00 | 0.00 | 0.00 | 90 | 1023.0 |
| 20260903002040 | 43 | 276 | 2.0 | 4.0 | 0.00 | 0.00 | 0.00 | 90 | 1022.9 |
| 20260903001541 | 43 | 276 | 2.0 | 4.0 | 0.00 | 0.00 | 0.00 | 90 | 1022.9 |
| 20260903001040 | 43 | 276 | 2.0 | 4.0 | 0.00 | 0.00 | 0.00 | 89 | 1022.9 |
| 20260903000540 | 43 | 276 | 2.0 | 3.0 | 0.00 | 0.00 | 0.00 | 89 | 1022.9 |
| 20260903000039 | 44 | 276 | 3.0 | 5.0 | 0.00 | 0.00 | 0.00 | 89 | 1023.0 |
| 20260902235538 | 44 | 276 | 3.0 | 5.0 | 0.00 | 0.00 | 0.00 | 89 | 1022.9 |
| 20260902235037 | 44 | 276 | 1.0 | 5.0 | 0.00 | 0.00 | 0.00 | 89 | 1022.9 |
| 20260902234637 | 45 | 276 | 3.0 | 5.0 | 0.00 | 0.00 | 0.00 | 88 | 1022.9 |
| 20260902234037 | 45 | 276 | 2.0 | 4.0 | 0.00 | 0.00 | 0.00 | 87 | 1022.9 |
| 20260902233536 | 45 | 276 | 1.0 | 3.0 | 0.00 | 0.00 | 0.00 | 87 | 1022.9 |
| 20260902233035 | 46 | 276 | 1.0 | 4.0 | 0.00 | 0.00 | 0.00 | 87 | 1022.8 |
| 20260902232534 | 46 | 276 | 1.0 | 3.0 | 0.00 | 0.00 | 0.00 | 87 | 1022.9 |
| 20260902232034 | 46 | 276 | 2.0 | 3.0 | 0.00 | 0.00 | 0.00 | 86 | 1022.8 |
| 20260902231533 | 47 | 276 | 1.0 | 2.0 | 0.00 | 0.00 | 0.00 | 86 | 1022.8 |
| 20260902231031 | 47 | 276 | 0.0 | 4.0 | 0.00 | 0.00 | 0.00 | 86 | 1022.8 |
| 20260902230529 | 47 | 276 | 1.0 | 5.0 | 0.00 | 0.00 | 0.00 | 85 | 1022.7 |
| 20260902230028 | 48 | 276 | 3.0 | 5.0 | 0.00 | 0.00 | 0.00 | 83 | 1022.7 |
| 20260902225528 | 49 | 340 | 0.0 | 2.0 | 0.00 | 0.00 | 0.00 | 82 | 1022.5 |
| 20260902225028 | 49 | 350 | 0.0 | 2.0 | 0.00 | 0.00 | 0.00 | 82 | 1022.5 |
| 20260902224627 | 50 | 2 | 0.0 | 1.0 | 0.00 | 0.00 | 0.00 | 81 | 1022.4 |
| 20260902224024 | 50 | 2 | 0.0 | 1.0 | 0.00 | 0.00 | 0.00 | 81 | 1022.4 |
| 20260902223523 | 50 | 2 | 0.0 | 5.0 | 0.00 | 0.00 | 0.00 | 80 | 1022.4 |
| 20260902223028 | 51 | 7 | 0.0 | 5.0 | 0.00 | 0.00 | 0.00 | 80 | 1022.4 |
| 20260902222521 | 51 | 350 | 0.0 | 2.0 | 0.00 | 0.00 | 0.00 | 79 | 1022.3 |
| 20260902222020 | 51 | 350 | 0.0 | 2.0 | 0.00 | 0.00 | 0.00 | 78 | 1022.2 |
| 20260902221525 | 52 | 3 | 0.0 | 4.0 | 0.00 | 0.00 | 0.00 | 78 | 1022.2 |
| 20260902221021 | 52 | 3 | 0.0 | 4.0 | 0.00 | 0.00 | 0.00 | 77 | 1022.2 |
| 20260902220520 | 52 | 345 | 0.0 | 2.0 | 0.00 | 0.00 | 0.00 | 77 | 1022.2 |
| 20260902220026 | 52 | 345 | 0.0 | 6.0 | 0.00 | 0.00 | 0.00 | 76 | 1022.2 |
| 20260902215519 | 52 | 35 | 2.0 | 6.0 | 0.00 | 0.00 | 0.00 | 76 | 1022.2 |
| 20260902215018 | 53 | 29 | 0.0 | 5.0 | 0.00 | 0.00 | 0.00 | 76 | 1022.2 |
| 20260902214619 | 53 | 11 | 1.0 | 5.0 | 0.00 | 0.00 | 0.00 | 75 | 1022.2 |
| 20260902214021 | 53 | 33 | 1.0 | 5.0 | 0.00 | 0.00 | 0.00 | 75 | 1022.2 |
| 20260902213519 | 53 | 27 | 2.0 | 5.0 | 0.00 | 0.00 | 0.00 | 75 | 1022.2 |
| 20260902213019 | 53 | 47 | 1.0 | 8.0 | 0.00 | 0.00 | 0.00 | 74 | 1022.2 |
| 20260902212522 | 54 | 10 | 1.0 | 5.0 | 0.00 | 0.00 | 0.00 | 74 | 1022.2 |
| 20260902212021 | 54 | 359 | 1.0 | 6.0 | 0.00 | 0.00 | 0.00 | 73 | 1022.3 |
| 20260902211519 | 54 | 3 | 3.0 | 7.0 | 0.00 | 0.00 | 0.00 | 73 | 1022.4 |
| 20260902211018 | 54 | 30 | 1.0 | 7.0 | 0.00 | 0.00 | 0.00 | 72 | 1022.4 |
| 20260902210519 | 54 | 30 | 1.0 | 5.0 | 0.00 | 0.00 | 0.00 | 72 | 1022.5 |
| 20260902210021 | 55 | 41 | 1.0 | 8.0 | 0.00 | 0.00 | 0.00 | 73 | 1022.4 |
| 20260902205518 | 55 | 36 | 4.0 | 8.0 | 0.00 | 0.00 | 0.00 | 72 | 1022.5 |
| 20260902205019 | 55 | 340 | 2.0 | 5.0 | 0.00 | 0.00 | 0.00 | 73 | 1022.5 |
| 20260902204620 | 55 | 73 | 1.0 | 7.0 | 0.00 | 0.00 | 0.00 | 73 | 1022.5 |
| 20260902204017 | 55 | 72 | 3.0 | 8.0 | 0.00 | 0.00 | 0.00 | 72 | 1022.5 |
| 20260902203521 | 55 | 50 | 3.0 | 8.0 | 0.00 | 0.00 | 0.00 | 71 | 1022.4 |
| 20260902203017 | 55 | 33 | 1.0 | 8.0 | 0.00 | 0.00 | 0.00 | 72 | 1022.4 |
| 20260902202517 | 55 | 18 | 0.0 | 6.0 | 0.00 | 0.00 | 0.00 | 72 | 1022.4 |
| 20260902202017 | 55 | 345 | 1.0 | 9.0 | 0.00 | 0.00 | 0.00 | 72 | 1022.4 |
| 20260902201520 | 55 | 25 | 3.0 | 9.0 | 0.00 | 0.00 | 0.00 | 71 | 1022.4 |
| 20260902201016 | 55 | 16 | 4.0 | 9.0 | 0.00 | 0.00 | 0.00 | 72 | 1022.3 |
| 20260902200520 | 55 | 18 | 3.0 | 9.0 | 0.00 | 0.00 | 0.00 | 71 | 1022.3 |
| 20260902200016 | 55 | 316 | 4.0 | 10.0 | 0.00 | 0.00 | 0.00 | 71 | 1022.3 |
| 20260902195515 | 55 | 51 | 6.0 | 10.0 | 0.00 | 0.00 | 0.00 | 71 | 1022.3 |
| 20260902195016 | 55 | 340 | 4.0 | 9.0 | 0.00 | 0.00 | 0.00 | 71 | 1022.3 |
| 20260902194616 | 55 | 47 | 5.0 | 9.0 | 0.00 | 0.00 | 0.00 | 71 | 1022.3 |
| 20260902194015 | 55 | 20 | 4.0 | 9.0 | 0.00 | 0.00 | 0.00 | 70 | 1022.3 |
| 20260902193515 | 56 | 82 | 5.0 | 10.0 | 0.00 | 0.00 | 0.00 | 70 | 1022.3 |
| 20260902193015 | 56 | 76 | 2.0 | 10.0 | 0.00 | 0.00 | 0.00 | 69 | 1022.3 |
| 20260902192515 | 57 | 286 | 4.0 | 10.0 | 0.00 | 0.00 | 0.00 | 69 | 1022.3 |
| 20260902192014 | 57 | 352 | 4.0 | 10.0 | 0.00 | 0.00 | 0.00 | 69 | 1022.2 |
| 20260902191516 | 57 | 17 | 5.0 | 10.0 | 0.00 | 0.00 | 0.00 | 69 | 1022.2 |
| 20260902191014 | 57 | 299 | 3.0 | 13.0 | 0.00 | 0.00 | 0.00 | 69 | 1022.2 |
| 20260902190514 | 56 | 301 | 5.0 | 13.0 | 0.00 | 0.00 | 0.00 | 69 | 1022.2 |
| 20260902190015 | 56 | 32 | 3.0 | 9.0 | 0.00 | 0.00 | 0.00 | 70 | 1022.2 |
| 20260902185514 | 57 | 340 | 3.0 | 13.0 | 0.00 | 0.00 | 0.00 | 69 | 1022.2 |
| 20260902185014 | 57 | 10 | 6.0 | 13.0 | 0.00 | 0.00 | 0.00 | 69 | 1022.2 |
| 20260902184612 | 57 | 43 | 5.0 | 11.0 | 0.00 | 0.00 | 0.00 | 70 | 1022.2 |
| 20260902184014 | 57 | 270 | 6.0 | 11.0 | 0.00 | 0.00 | 0.00 | 69 | 1022.2 |
| 20260902183513 | 57 | 309 | 6.0 | 10.0 | 0.00 | 0.00 | 0.00 | 68 | 1022.3 |
| 20260902183015 | 57 | 3 | 4.0 | 9.0 | 0.00 | 0.00 | 0.00 | 68 | 1022.3 |
| 20260902182512 | 57 | 4 | 4.0 | 10.0 | 0.00 | 0.00 | 0.00 | 68 | 1022.3 |
| 20260902182012 | 57 | 308 | 1.0 | 10.0 | 0.00 | 0.00 | 0.00 | 69 | 1022.1 |
| 20260902181511 | 57 | 29 | 3.0 | 10.0 | 0.00 | 0.00 | 0.00 | 69 | 1022.2 |
| 20260902181010 | 57 | 313 | 4.0 | 10.0 | 0.00 | 0.00 | 0.00 | 68 | 1022.1 |